FW7512 Weather Reports


time (UTC)temp
F
wind
direction
speed
knots
gust
knots
rain 1hr
in
rain 24hr
in
rain mn
in
humidity
%
barometer
mb
20260508220545 69 172 0.0 2.6 0.00 0.00 0.00 46 1009.1
20260508220003 69 257 0.0 0.9 0.00 0.00 0.00 49 1009.0
20260508215557 69 267 0.0 0.9 0.00 0.00 0.00 50 1009.0
20260508215052 69 129 0.0 2.6 0.00 0.00 0.00 49 1009.0
20260508214516 69 27 0.0 0.9 0.00 0.00 0.00 49 1009.1
20260508214002 69 73 0.0 1.7 0.00 0.00 0.00 47 1009.1
20260508213556 69 352 0.0 1.7 0.00 0.00 0.00 48 1009.1
20260508213015 69 42 0.0 0.9 0.00 0.00 0.00 47 1009.1
20260508212508 69 312 0.0 1.7 0.00 0.00 0.00 49 1009.1
20260508212102 70 334 0.0 1.7 0.00 0.00 0.00 47 1009.3
20260508211529 70 229 0.0 2.6 0.00 0.00 0.00 46 1009.2
20260508211021 70 84 0.0 2.6 0.00 0.00 0.00 46 1009.5
20260508210512 69 60 0.0 2.6 0.00 0.00 0.00 45 1009.6
20260508210032 69 136 0.0 0.9 0.00 0.00 0.00 47 1009.9
20260508205518 69 116 0.0 1.7 0.00 0.00 0.00 47 1009.9
20260508205019 69 305 0.0 1.7 0.00 0.00 0.00 46 1009.9
20260508204532 70 294 0.0 2.6 0.00 0.00 0.00 46 1010.2
20260508204023 70 121 0.9 3.5 0.00 0.00 0.00 46 1010.2
20260508203514 71 262 0.0 2.6 0.00 0.00 0.00 47 1010.1
20260508203040 71 11 0.0 0.9 0.00 0.00 0.00 52 1010.1
20260508202631 70 147 0.0 0.9 0.00 0.00 0.00 50 1010.2
20260508202026 70 293 0.0 1.7 0.00 0.00 0.00 46 1010.2
20260508201556 71 110 0.0 2.6 0.00 0.00 0.00 46 1010.3
20260508201036 70 150 0.0 2.6 0.00 0.00 0.00 43 1010.4
20260508200529 70 309 0.0 3.5 0.00 0.00 0.00 44 1010.4
20260508200049 70 69 0.9 3.5 0.00 0.00 0.00 44 1010.5
20260508195539 70 143 0.0 1.7 0.00 0.00 0.00 45 1010.6
20260508195035 71 139 0.0 2.6 0.00 0.00 0.00 45 1010.6
20260508194552 72 135 0.0 2.6 0.00 0.00 0.00 44 1010.5
20260508194043 72 103 0.0 3.5 0.00 0.00 0.00 42 1010.6
20260508193533 73 134 0.0 4.3 0.00 0.00 0.00 43 1010.6
20260508193054 73 339 0.0 4.3 0.00 0.00 0.00 42 1010.7
20260508192540 74 60 0.0 5.2 0.00 0.00 0.00 40 1010.7
20260508192034 76 298 0.9 5.2 0.00 0.00 0.00 38 1010.7
20260508191553 76 306 0.0 3.5 0.00 0.00 0.00 42 1010.7
20260508191041 76 138 0.9 3.5 0.00 0.00 0.00 38 1010.8
20260508190531 75 131 0.0 5.2 0.00 0.00 0.00 43 1011.0
20260508190058 74 300 0.9 6.1 0.00 0.00 0.00 43 1011.1
20260508185553 75 140 0.9 6.1 0.00 0.00 0.00 37 1011.0
20260508185039 75 54 0.9 7.0 0.00 0.00 0.00 43 1011.1
20260508184600 75 256 0.0 7.0 0.00 0.00 0.00 42 1011.2
20260508184051 75 267 0.9 3.5 0.00 0.00 0.00 42 1011.3
20260508183539 74 266 0.9 4.3 0.00 0.00 0.00 44 1011.4
20260508183100 74 302 0.9 4.3 0.00 0.00 0.00 42 1011.4
20260508182550 74 299 0.9 4.3 0.00 0.00 0.00 46 1011.6
20260508182038 74 300 0.9 4.3 0.00 0.00 0.00 38 1011.7
20260508181505 74 326 0.9 3.5 0.00 0.00 0.00 41 1011.8
20260508181058 74 332 0.9 3.5 0.00 0.00 0.00 45 1011.8
20260508180550 74 333 0.9 4.3 0.00 0.00 0.00 46 1012.0
20260508180004 72 134 0.0 6.1 0.00 0.00 0.00 43 1012.0
20260508175555 71 309 0.0 6.1 0.00 0.00 0.00 43 1012.0
20260508175045 72 68 0.0 3.5 0.00 0.00 0.00 44 1012.2
20260508174502 72 105 0.0 2.6 0.00 0.00 0.00 47 1012.4
20260508174056 72 283 0.0 2.6 0.00 0.00 0.00 45 1012.4
20260508173543 71 168 0.0 2.6 0.00 0.00 0.00 46 1012.6
20260508173014 71 281 0.0 6.1 0.00 0.00 0.00 46 1012.7
20260508172504 71 315 0.9 5.2 0.00 0.00 0.00 47 1013.0
20260508172058 71 311 0.0 4.3 0.00 0.00 0.00 44 1013.0
20260508171524 73 224 0.0 4.3 0.00 0.00 0.00 44 1012.9
20260508171005 74 131 0.9 4.3 0.00 0.00 0.00 42 1013.1
20260508170557 74 200 0.0 4.3 0.00 0.00 0.00 46 1013.2
20260508170017 73 78 0.0 2.6 0.00 0.00 0.00 47 1013.4
20260508165505 72 65 0.0 3.5 0.00 0.00 0.00 48 1013.4
20260508165057 72 272 0.9 4.3 0.00 0.00 0.00 43 1013.5
20260508164527 72 267 0.9 5.2 0.00 0.00 0.00 46 1013.7
20260508164021 72 297 0.9 6.1 0.00 0.00 0.00 45 1013.7
20260508163513 71 39 0.9 6.1 0.00 0.00 0.00 44 1013.6
20260508163034 72 48 0.0 3.5 0.00 0.00 0.00 44 1014.0
20260508162522 72 244 0.0 4.3 0.00 0.00 0.00 46 1013.9
20260508162013 72 141 0.9 3.5 0.00 0.00 0.00 47 1013.9
20260508161534 72 298 0.0 7.0 0.00 0.00 0.00 48 1014.0
20260508161023 71 128 0.9 7.0 0.00 0.00 0.00 49 1014.0
20260508160512 71 302 0.0 6.1 0.00 0.00 0.00 49 1014.1
20260508160034 71 308 0.0 3.5 0.00 0.00 0.00 49 1014.1
20260508155523 70 302 0.0 3.5 0.00 0.00 0.00 49 1014.1
20260508155014 70 27 0.0 4.3 0.00 0.00 0.00 53 1014.2
20260508154532 69 158 0.0 6.1 0.00 0.00 0.00 48 1014.3
20260508154024 69 70 0.0 6.1 0.00 0.00 0.00 51 1014.4
20260508153516 70 319 1.7 6.1 0.00 0.00 0.00 46 1014.5
20260508153035 69 132 0.0 3.5 0.00 0.00 0.00 51 1014.5
20260508152525 68 49 0.0 3.5 0.00 0.00 0.00 51 1014.6
20260508152017 69 316 0.0 4.3 0.00 0.00 0.00 48 1014.6
20260508151542 69 321 0.0 4.3 0.00 0.00 0.00 50 1014.5
20260508151028 68 269 0.0 3.5 0.00 0.00 0.00 49 1014.6
20260508150521 68 134 0.0 3.5 0.00 0.00 0.00 52 1014.6
20260508150036 67 207 0.0 3.5 0.00 0.00 0.00 48 1014.7
20260508145530 67 117 0.0 2.6 0.00 0.00 0.00 50 1014.7
20260508145018 67 271 0.0 2.6 0.00 0.00 0.00 50 1014.7
20260508144544 67 304 0.0 2.6 0.00 0.00 0.00 52 1014.7
20260508144028 66 148 0.0 2.6 0.00 0.00 0.00 52 1014.7
20260508143522 66 147 0.0 2.6 0.00 0.00 0.00 53 1014.8
20260508143037 65 134 0.0 3.5 0.00 0.00 0.00 52 1014.9
20260508142528 64 328 0.9 3.5 0.00 0.00 0.00 53 1015.0
20260508142019 64 146 0.9 3.5 0.00 0.00 0.00 53 1015.0
20260508141606 64 67 0.0 2.6 0.00 0.00 0.00 54 1015.1
20260508141029 64 107 0.0 2.6 0.00 0.00 0.00 56 1015.2
20260508140518 63 317 0.0 5.2 0.00 0.00 0.00 54 1015.1
20260508140039 63 122 0.9 3.5 0.00 0.00 0.00 57 1015.1
20260508135527 63 56 0.0 2.6 0.00 0.00 0.00 58 1015.1
20260508135016 62 155 0.0 2.6 0.00 0.00 0.00 59 1015.2
20260508134549 62 285 0.0 2.6 0.00 0.00 0.00 61 1015.3
20260508134023 61 165 0.0 2.6 0.00 0.00 0.00 59 1015.4
20260508133517 61 110 0.0 2.6 0.00 0.00 0.00 60 1015.3
20260508133044 60 240 0.0 1.7 0.00 0.00 0.00 60 1015.4
20260508132533 59 229 0.0 0.9 0.00 0.00 0.00 62 1015.3
20260508132024 58 121 0.0 3.5 0.00 0.00 0.00 65 1015.5
20260508131540 57 314 0.0 3.5 0.00 0.00 0.00 66 1015.5
20260508131032 57 136 0.0 1.7 0.00 0.00 0.00 69 1015.4
20260508130521 56 140 0.0 0.9 0.00 0.00 0.00 68 1015.4
20260508130039 56 248 0.0 0.9 0.00 0.00 0.00 69 1015.4
20260508125528 55 120 0.0 0.9 0.00 0.00 0.00 73 1015.3
20260508125019 54 284 0.0 0.9 0.00 0.00 0.00 75 1015.3
20260508124543 53 131 0.0 0.0 0.00 0.00 0.00 80 1015.4
20260508124028 51 131 0.0 0.9 0.00 0.00 0.00 81 1015.4
20260508123517 50 131 0.0 1.7 0.00 0.00 0.00 82 1015.4
20260508123045 49 137 0.0 1.7 0.00 0.00 0.00 84 1015.4
20260508122522 48 129 0.0 1.7 0.00 0.00 0.00 87 1015.3
20260508122012 47 138 0.0 0.9 0.00 0.00 0.00 88 1015.4
20260508121534 47 157 0.0 0.0 0.00 0.00 0.00 88 1015.4
20260508121024 46 157 0.0 0.0 0.00 0.00 0.00 89 1015.4
20260508120514 46 157 0.0 0.0 0.00 0.00 0.00 90 1015.5
20260508120032 0 0.0 0.0 0.00 0.00 0.00 1015.5
20260508115525 0 0.0 0.0 0.00 0.00 0.00 1015.3
20260508115017 0 0.0 0.0 0.00 0.00 0.00 1015.3
20260508114539 0 0.0 0.0 0.00 0.00 0.00 1015.2
20260508114029 0 0.0 0.0 0.00 0.00 0.00 1015.2
20260508113518 0 0.0 0.0 0.00 0.00 0.00 1015.0
20260508113050 0 0.0 0.0 0.00 0.00 0.00 1015.2
20260508112534 0 0.0 0.0 0.00 0.00 0.00 1015.0
20260508112027 0 0.0 0.0 0.00 0.00 0.00 1015.1
20260508111547 0 0.0 0.0 0.00 0.00 0.00 1015.0
20260508111037 0 0.0 0.0 0.00 0.00 0.00 1014.9
20260508110527 0 0.0 0.0 0.00 0.00 0.00 1014.9
20260508110038 0 0.0 0.0 0.00 0.00 0.00 1014.8
20260508105530 0 264 0.0 0.0 0.00 0.00 0.00 1014.9
20260508105020 0 264 0.0 0.0 0.00 0.00 0.00 1015.0
20260508104540 0 264 0.0 0.0 0.00 0.00 0.00 1015.0
20260508104035 42 262 0.0 0.0 0.00 0.00 0.00 95 1014.9
20260508103527 41 262 0.0 0.0 0.00 0.00 0.00 95 1014.8
20260508103049 41 262 0.0 0.0 0.00 0.00 0.00 95 1014.9
20260508102541 41 262 0.0 0.0 0.00 0.00 0.00 95 1014.8
20260508102036 41 262 0.0 0.0 0.00 0.00 0.00 95 1014.9
20260508101555 41 262 0.0 0.0 0.00 0.00 0.00 95 1014.9
20260508101046 41 262 0.0 0.0 0.00 0.00 0.00 95 1014.8
20260508100539 41 262 0.0 0.0 0.00 0.00 0.00 95 1014.8
20260508095553 41 262 0.0 0.0 0.00 0.00 0.00 95 1014.8
20260508095045 40 262 0.0 0.0 0.00 0.00 0.00 95 1014.9
20260508094509 40 262 0.0 0.0 0.00 0.00 0.00 95 1014.9
20260508094100 40 262 0.0 0.0 0.00 0.00 0.00 95 1015.0
20260508093554 40 262 0.0 0.0 0.00 0.00 0.00 95 1014.9
20260508093016 40 262 0.0 0.0 0.00 0.00 0.00 95 1014.9
20260508092508 40 262 0.0 0.0 0.00 0.00 0.00 95 1014.8
20260508092100 39 262 0.0 0.0 0.00 0.00 0.00 95 1014.8
20260508091532 39 262 0.0 0.0 0.00 0.00 0.00 95 1014.9
20260508091015 39 262 0.0 0.0 0.00 0.00 0.00 95 1014.9
20260508090507 39 262 0.0 0.0 0.00 0.00 0.00 95 1015.0
20260508090037 39 262 0.0 0.0 0.00 0.00 0.00 95 1014.9
20260508085517 38 262 0.0 0.0 0.00 0.00 0.00 95 1014.8
20260508085012 38 262 0.0 0.0 0.00 0.00 0.00 95 1014.8
20260508084533 38 262 0.0 0.0 0.00 0.00 0.00 95 1014.7
20260508084027 38 262 0.0 0.0 0.00 0.00 0.00 94 1014.7
20260508083517 38 262 0.0 0.0 0.00 0.00 0.00 94 1014.8
20260508083048 38 262 0.0 0.0 0.00 0.00 0.00 94 1014.8
20260508082531 38 262 0.0 0.0 0.00 0.00 0.00 94 1014.8
20260508082022 39 262 0.0 0.0 0.00 0.00 0.00 94 1014.6
20260508081541 38 262 0.0 0.0 0.00 0.00 0.00 94 1014.6
20260508081033 38 262 0.0 0.0 0.00 0.00 0.00 94 1014.6
20260508080525 39 262 0.0 0.0 0.00 0.00 0.00 94 1014.7
20260508080049 39 262 0.0 0.0 0.00 0.00 0.00 94 1014.8
20260508075537 39 262 0.0 0.0 0.00 0.00 0.00 94 1014.7
20260508075028 39 262 0.0 0.0 0.00 0.00 0.00 94 1014.7
20260508074552 39 262 0.0 0.0 0.00 0.00 0.00 94 1014.7
20260508074041 39 262 0.0 0.0 0.00 0.00 0.00 94 1014.6
20260508073536 39 262 0.0 0.0 0.00 0.00 0.00 94 1014.6
20260508073053 39 262 0.0 0.0 0.00 0.00 0.00 94 1014.6
20260508072542 39 262 0.0 0.0 0.00 0.00 0.00 94 1014.6
20260508072035 39 262 0.0 0.0 0.00 0.00 0.00 94 1014.7
20260508071511 40 262 0.0 0.0 0.00 0.00 0.00 94 1014.7
20260508071058 40 262 0.0 0.0 0.00 0.00 0.00 94 1014.7
20260508070553 39 262 0.0 0.0 0.00 0.00 0.00 94 1014.7
20260508070018 39 262 0.0 0.0 0.00 0.00 0.00 94 1014.7
20260508065509 39 262 0.0 0.0 0.00 0.00 0.00 94 1014.8
20260508065102 39 262 0.0 0.0 0.00 0.00 0.00 94 1014.9
20260508064520 40 262 0.0 0.0 0.00 0.00 0.00 94 1015.1
20260508064012 40 262 0.0 0.0 0.00 0.00 0.00 94 1015.1
20260508063504 40 262 0.0 0.0 0.00 0.00 0.00 94 1015.2
20260508063022 40 262 0.0 0.0 0.00 0.00 0.00 93 1015.1
20260508062514 40 262 0.0 0.0 0.00 0.00 0.00 93 1015.2
20260508062004 40 262 0.0 0.0 0.00 0.00 0.00 93 1015.2
20260508061527 40 262 0.0 0.0 0.00 0.00 0.00 93 1015.2
20260508061020 40 262 0.0 0.0 0.00 0.00 0.00 93 1015.2
20260508060515 40 262 0.0 0.0 0.00 0.00 0.00 93 1015.3
20260508060036 40 262 0.0 0.0 0.00 0.00 0.00 93 1015.3
20260508055531 40 262 0.0 0.0 0.00 0.00 0.00 93 1015.3
20260508055020 40 262 0.0 0.0 0.00 0.00 0.00 93 1015.3
20260508054540 40 262 0.0 0.0 0.00 0.00 0.00 93 1015.4
20260508054031 40 262 0.0 0.0 0.00 0.00 0.00 92 1015.4
20260508053522 40 262 0.0 0.0 0.00 0.00 0.00 92 1015.4
20260508053013 40 262 0.0 0.0 0.00 0.00 0.00 92 1015.4
20260508052505 41 262 0.0 0.0 0.00 0.00 0.00 92 1015.3
20260508052057 41 262 0.0 0.0 0.00 0.00 0.00 92 1015.3
20260508051515 41 262 0.0 0.0 0.00 0.00 0.00 92 1015.2
20260508051008 41 262 0.0 0.0 0.00 0.00 0.00 92 1015.3
20260508050601 41 262 0.0 0.0 0.00 0.00 0.00 92 1015.2
20260508050022 41 262 0.0 0.0 0.00 0.00 0.00 91 1015.3
20260508045516 41 262 0.0 0.0 0.00 0.00 0.00 91 1015.3
20260508045003 41 262 0.0 0.0 0.00 0.00 0.00 91 1015.2
20260508044523 42 262 0.0 0.0 0.00 0.00 0.00 91 1015.3
20260508044014 42 262 0.0 0.0 0.00 0.00 0.00 91 1015.3
20260508043509 42 262 0.0 0.0 0.00 0.00 0.00 91 1015.3
20260508043043 42 262 0.0 0.0 0.00 0.00 0.00 91 1015.3
20260508042525 42 262 0.0 0.0 0.00 0.00 0.00 91 1015.3
20260508042018 42 262 0.0 0.0 0.00 0.00 0.00 91 1015.3
20260508041537 42 262 0.0 0.0 0.00 0.00 0.00 91 1015.2
20260508041030 42 262 0.0 0.0 0.00 0.00 0.00 90 1015.1
20260508040523 42 262 0.0 0.0 0.00 0.00 0.00 90 1015.1
20260508040037 42 262 0.0 0.0 0.00 0.00 0.00 90 1015.1
20260508035531 42 262 0.0 0.0 0.00 0.00 0.00 90 1015.2
20260508035024 42 262 0.0 0.0 0.00 0.00 0.00 89 1015.1
20260508034546 42 262 0.0 0.0 0.00 0.00 0.00 89 1015.2
20260508034038 43 262 0.0 0.0 0.00 0.00 0.00 89 1015.2
20260508033533 43 262 0.0 0.0 0.00 0.00 0.00 88 1015.2
20260508033052 43 262 0.0 0.0 0.00 0.00 0.00 88 1015.3
20260508032543 43 262 0.0 0.0 0.00 0.00 0.00 88 1015.2
20260508032040 43 262 0.0 0.0 0.00 0.00 0.00 88 1015.2
20260508031558 43 262 0.0 0.0 0.00 0.00 0.00 87 1015.1
20260508031048 43 262 0.0 0.0 0.00 0.00 0.00 86 1015.2
20260508030541 44 262 0.0 0.0 0.00 0.00 0.00 86 1015.2
20260508030103 44 262 0.0 0.0 0.00 0.00 0.00 86 1015.3
20260508025552 44 262 0.0 0.0 0.00 0.00 0.00 85 1015.3
20260508025042 44 262 0.0 0.0 0.00 0.00 0.00 85 1015.3
20260508024500 44 262 0.0 0.0 0.00 0.00 0.00 84 1015.3
20260508024054 45 262 0.0 0.0 0.00 0.00 0.00 84 1015.2
20260508023545 45 262 0.0 0.0 0.00 0.00 0.00 84 1015.1
20260508023009 45 262 0.0 0.0 0.00 0.00 0.00 83 1015.0
20260508022600 45 262 0.0 0.0 0.00 0.00 0.00 83 1015.1
20260508022054 45 262 0.0 0.0 0.00 0.00 0.00 83 1015.1
20260508021532 45 262 0.0 0.0 0.00 0.00 0.00 82 1015.0
20260508021020 46 262 0.0 0.0 0.00 0.00 0.00 80 1015.0
20260508020510 46 262 0.0 0.0 0.00 0.00 0.00 80 1015.1
20260508020031 46 262 0.0 0.0 0.00 0.00 0.00 78 1015.2
20260508015524 46 262 0.0 0.0 0.00 0.00 0.00 77 1015.1
20260508015017 47 262 0.0 0.0 0.00 0.00 0.00 77 1015.1
20260508014540 47 262 0.0 0.0 0.00 0.00 0.00 76 1015.0
20260508014034 47 262 0.0 0.0 0.00 0.00 0.00 74 1015.1
20260508013526 48 262 0.0 0.0 0.00 0.00 0.00 73 1015.0
20260508013048 48 262 0.0 0.0 0.00 0.00 0.00 73 1015.0
20260508012541 48 262 0.0 0.0 0.00 0.00 0.00 72 1014.9
20260508012032 49 262 0.0 0.0 0.00 0.00 0.00 72 1014.8
20260508011555 49 262 0.0 0.0 0.00 0.00 0.00 70 1014.8
20260508011044 50 262 0.0 0.0 0.00 0.00 0.00 71 1014.7
20260508010537 50 262 0.0 0.0 0.00 0.00 0.00 72 1014.7
20260508010057 50 262 0.0 0.0 0.00 0.00 0.00 71 1014.8
20260508005548 51 262 0.0 0.0 0.00 0.00 0.00 68 1014.6
20260508005041 51 262 0.0 0.0 0.00 0.00 0.00 68 1014.7
20260508004501 51 262 0.0 0.0 0.00 0.00 0.00 70 1014.6
20260508004054 52 262 0.0 0.0 0.00 0.00 0.00 69 1014.5
20260508003544 52 262 0.0 0.0 0.00 0.00 0.00 69 1014.5
20260508003004 52 262 0.0 0.0 0.00 0.00 0.00 68 1014.5
20260508002558 53 262 0.0 0.0 0.00 0.00 0.00 66 1014.5
20260508002050 53 262 0.0 0.0 0.00 0.00 0.00 66 1014.2
20260508001516 53 262 0.0 0.0 0.00 0.00 0.00 67 1014.2
20260508001004 54 262 0.0 0.0 0.00 0.00 0.00 68 1014.2
20260508000602 54 262 0.0 0.0 0.00 0.00 0.00 68 1014.2
20260508000019 55 262 0.0 0.0 0.00 0.00 0.00 67 1014.2
20260507235511 55 262 0.0 0.0 0.00 0.00 0.00 64 1014.2
20260507235004 56 200 0.0 0.0 0.00 0.00 0.00 62 1014.1
20260507234524 57 200 0.0 0.0 0.00 0.00 0.00 61 1014.1
20260507234016 57 200 0.0 0.9 0.00 0.00 0.00 61 1014.1
20260507233508 58 79 0.0 0.9 0.00 0.00 0.00 54 1014.2
20260507233036 59 78 0.0 0.9 0.00 0.00 0.00 56 1014.1
20260507232522 60 173 0.0 0.9 0.00 0.00 0.00 49 1014.1
20260507232017 61 255 0.0 3.5 0.00 0.00 0.00 50 1014.1
20260507231552 62 255 0.0 3.5 0.00 0.00 0.00 39 1014.1
20260507231038 63 293 0.0 3.5 0.00 0.00 0.00 46 1014.1
20260507230532 64 290 0.0 0.9 0.00 0.00 0.00 45 1014.1
20260507230002 64 101 0.0 0.9 0.00 0.00 0.00 40 1014.2
20260507225555 64 69 0.0 1.7 0.00 0.00 0.00 44 1014.2
20260507225051 64 52 0.0 2.6 0.00 0.00 0.00 40 1014.1
20260507224508 64 126 0.0 2.6 0.00 0.00 0.00 44 1014.2
20260507224001 64 136 0.0 0.9 0.00 0.00 0.00 41 1014.1
20260507223554 64 2 0.0 3.5 0.00 0.00 0.00 45 1014.2
20260507223013 63 242 0.0 0.9 0.00 0.00 0.00 39 1014.2
20260507222504 64 320 0.0 1.7 0.00 0.00 0.00 42 1014.3
20260507222059 64 288 0.0 1.7 0.00 0.00 0.00 39 1014.2
20260507221518 65 27 0.0 2.6 0.00 0.00 0.00 38 1014.3
20260507221015 65 82 0.9 4.3 0.00 0.00 0.00 38 1014.3